Regional Weather Roundup
Issued by NWS Cleveland, OH

Home | Current Version | Previous Version | Graphics & Text | Print | Product List | Glossary On
Versions: 1 2 3 4 5 6 7 8 9 10 11 12 13 14 15 16 17 18 19 20 21 22 23 24 25 26 27 28 29 30 31 32 33 34 35 36 37 38 39 40 41 42 43 44 45 46 47 48 49 50
000
ASUS41 KCLE 211800
RWRCLE
OHIO REGIONAL WEATHER ROUNDUP
NATIONAL WEATHER SERVICE WILMINGTON, OH
200 PM EDT MON MAY 21 2018

NOTE: "FAIR" INDICATES FEW OR NO CLOUDS BELOW 12,000 FEET WITH NO
SIGNIFICANT WEATHER AND/OR OBSTRUCTIONS TO VISIBILITY.

OHZ001>008-015>018-024>027-034-035-043-044-211900-
   NORTHWEST OHIO

CITY           SKY/WX    TMP DP  RH WIND       PRES   REMARKS
DEFIANCE       PTSUNNY   66  56  70 E10       30.14F
FINDLAY        FAIR      75  60  59 E10       30.12F
TOLEDO EXPRESS FAIR      65  55  70 E9        30.16F
TOLEDO EXEC    FAIR      63  53  70 NE10      30.18F
LIMA           FAIR      79  63  57 E9        30.11F
$$

OHZ009>014-019>023-028>033-038-089-211900-
   NORTHEAST OHIO

CITY           SKY/WX    TMP DP  RH WIND       PRES   REMARKS
CLE-HOPKINS    PTSUNNY   70  58  65 N8        30.19F
CLE-LAKEFRONT  FAIR      59  53  80 NE14      30.17F
CUY CO. ARPT   PTSUNNY   77  57  50 SE8       30.17F
LORAIN-ELYRIA  FAIR      73  55  53 NE7       30.16F
ASHTABULA      FAIR      72  50  45 MISG      30.19F
AKRON-CANTON   PTSUNNY   75  57  53 VRB6      30.16F
WOOSTER        NOT AVBL
MANSFIELD      FAIR      74  58  57 E6        30.15F
YOUNGSTOWN     PTSUNNY   73  56  54 SE5       30.17F
$$

OHZ042-051>053-060>062-070>072-077>081-211900-
  SOUTHWEST OHIO

CITY           SKY/WX    TMP DP  RH WIND       PRES   REMARKS
CINC-COVINGTON FAIR      83  63  50 VRB5      30.10F
CINC-LUNKEN    FAIR      84  69  60 VRB5      30.08F
HAMILTON       FAIR      83  69  62 CALM      30.09F
DAYTON         NOT AVBL
WRIGHT-PAT AFB FAIR      81  67  62 S7        30.10F
DAYTON GENERAL FAIR      83  68  60 MISG      30.10F
WILMINGTON     PTSUNNY   79  70  74 SE3       30.11F
$$

OHZ036-037-039>041-045>050-054>059-063>069-073>076-082>088-211900-
  CENTRAL AND SOUTHEAST OHIO

CITY           SKY/WX    TMP DP  RH WIND       PRES   REMARKS
COLUMBUS       FAIR      79  64  60 S10G18    30.12F
OSU AIRPORT    FAIR      78  66  66 VRB7      30.12F
BOLTON FIELD   SUNNY     77  66  69 SE7       30.13F
RICKENBACK AFB NOT AVBL
NEWARK         FAIR      77  65  66 SE7       30.13F
MARION         FAIR      78  60  53 S9        30.13F
LANCASTER      LGT RAIN  71  68  90 SE5       30.14F
ZANESVILLE     FAIR      78  63  59 CALM      30.14F
NEW PHILLY     FAIR      78  58  49 S7        30.15F
$$




USA.gov is the U.S. government's official web portal to all federal, state and local government web resources and services.